Change the Weather History Date:

Tuesday, June 18, 2013

  Actual Average Record
Temperature  
Mean Temperature 76 °F -  
Max Temperature 84 °F 80 °F 95 °F (2007)
Min Temperature 69 °F 64 °F 54 °F (2012)
Cooling Degree Days 12    
Growing Degree Days 26 (Base 50)    
Moisture  
Dew Point 70 °F    
Average Humidity 84    
Maximum Humidity 96    
Minimum Humidity 67    
Precipitation  
Precipitation 0.86 in - - ()
Sea Level Pressure  
Sea Level Pressure 29.85 in    
Wind  
Wind Speed 9 mph (WSW)    
Max Wind Speed 20 mph    
Max Gust Speed 25 mph    
Visibility 9 miles    
Events Fog , Rain , Thunderstorm    
Averages and records for this station are not official NWS values.
T = Trace of Precipitation, MM = Missing Value Source: NWS Daily Summary

Daily Weather History Graph

Daily Weather History Graph

Search for Another Location

Airport or City:

Trip Planner

Search our weather history database for the weather conditions in past years. The results will help you decide how hot, cold, wet, or windy it might be!

Date:

Astronomy

Jun. 18, 2013 Rise Set
Actual Time 5:44 AM EDT 8:25 PM EDT
Civil Twilight 5:14 AM EDT 8:56 PM EDT
Nautical Twilight 4:35 AM EDT 9:34 PM EDT
Astronomical Twilight 3:52 AM EDT 10:18 PM EDT
Moon 3:13 PM EDT (6/18) 1:45 AM EDT (6/18)
Length of Visible Light 15h 42m
Length of Day
14h 41m
Waxing Gibbous, 70% of the Moon is Illuminated
Jun 18
Waxing Gibbous
Jun 23
Full
Jun 30
Last Quarter
Jul 8
New
Jul 15
First Quarter

Hourly Weather History & Observations

Time (EDT) Temp. Heat Index Dew Point Humidity Pressure Visibility Wind Dir Wind Speed Gust Speed Precip Events Conditions
12:56 AM 73.0 °F - 68.0 °F 84% 29.96 in 10.0 mi SW 5.8 mph - N/A   Mostly Cloudy
1:56 AM 72.0 °F - 68.0 °F 87% 29.95 in 10.0 mi SSW 6.9 mph - N/A   Scattered Clouds
2:56 AM 72.0 °F - 69.1 °F 91% 29.92 in 10.0 mi South 5.8 mph - N/A   Mostly Cloudy
3:56 AM 72.0 °F - 69.1 °F 91% 29.91 in 10.0 mi SSW 8.1 mph - N/A   Overcast
4:56 AM 73.0 °F - 69.1 °F 87% 29.91 in 10.0 mi SSW 9.2 mph - N/A   Overcast
5:56 AM 73.0 °F - 69.1 °F 87% 29.91 in 10.0 mi SSW 9.2 mph - N/A   Mostly Cloudy
6:56 AM 73.0 °F - 69.1 °F 87% 29.92 in 10.0 mi SW 9.2 mph - N/A   Mostly Cloudy
7:14 AM 73.4 °F - 69.8 °F 88% 29.91 in 10.0 mi SSW 6.9 mph - N/A   Mostly Cloudy
7:56 AM 73.0 °F - 70.0 °F 90% 29.93 in 10.0 mi SW 11.5 mph - N/A   Overcast
8:07 AM 73.4 °F - 69.8 °F 88% 29.92 in 10.0 mi WSW 8.1 mph - N/A   Overcast
8:56 AM 73.9 °F - 70.0 °F 87% 29.92 in 10.0 mi SSW 8.1 mph - N/A   Overcast
9:56 AM 77.0 °F - 71.1 °F 82% 29.91 in 10.0 mi SW 9.2 mph - N/A   Overcast
10:56 AM 79.0 °F - 71.1 °F 77% 29.90 in 10.0 mi SSW 8.1 mph - N/A   Overcast
11:56 AM 80.1 °F 83.6 °F 71.1 °F 74% 29.88 in 10.0 mi SW 11.5 mph - N/A   Overcast
12:56 PM 80.1 °F 83.6 °F 71.1 °F 74% 29.87 in 10.0 mi SW 12.7 mph - N/A   Overcast
1:27 PM 80.6 °F 84.6 °F 71.6 °F 74% 29.85 in 10.0 mi SW 11.5 mph - 0.00 in Rain Light Rain
1:41 PM 80.6 °F 84.6 °F 71.6 °F 74% 29.85 in 10.0 mi SW 11.5 mph - 0.00 in Rain Light Rain
1:56 PM 80.1 °F 83.6 °F 71.1 °F 74% 29.85 in 10.0 mi SW 12.7 mph - 0.00 in Rain Light Rain
2:19 PM 80.6 °F 84.6 °F 71.6 °F 74% 29.83 in 10.0 mi SW 11.5 mph - 0.00 in   Overcast
2:56 PM 82.0 °F 86.3 °F 71.1 °F 69% 29.83 in 10.0 mi SW 11.5 mph - 0.00 in   Overcast
3:56 PM 82.0 °F 86.7 °F 72.0 °F 71% 29.80 in 10.0 mi SW 6.9 mph - N/A   Overcast
4:56 PM 82.9 °F 88.0 °F 72.0 °F 69% 29.79 in 10.0 mi SW 11.5 mph - N/A   Overcast
5:56 PM 84.0 °F 89.6 °F 72.0 °F 67% 29.77 in 10.0 mi SW 12.7 mph - N/A   Mostly Cloudy
6:56 PM 80.1 °F 83.2 °F 70.0 °F 71% 29.76 in 10.0 mi SSW 12.7 mph 20.7 mph N/A   Mostly Cloudy
7:56 PM 77.0 °F - 70.0 °F 79% 29.77 in 10.0 mi NNW 5.8 mph - N/A   Overcast
8:05 PM 75.2 °F - 71.6 °F 89% 29.77 in 10.0 mi WNW 19.6 mph 24.2 mph 0.00 in Rain Light Rain
8:08 PM 75.2 °F - 69.8 °F 83% 29.78 in 0.5 mi West 19.6 mph 24.2 mph 0.13 in Fog , Rain Heavy Rain
8:15 PM 71.6 °F - 69.8 °F 94% 29.77 in 0.2 mi NW 15.0 mph 25.3 mph 0.57 in Fog , Rain , Thunderstorm Heavy Thunderstorms and Rain
8:34 PM 73.4 °F - 69.8 °F 88% 29.79 in 3.0 mi WSW 10.4 mph - 0.74 in Rain , Thunderstorm Light Thunderstorms and Rain
8:47 PM 71.6 °F - 69.8 °F 94% 29.79 in 10.0 mi NNW 11.5 mph 25.3 mph 0.74 in   Overcast
8:56 PM 72.0 °F - 70.0 °F 93% 29.80 in 10.0 mi NNW 10.4 mph - 0.75 in   Overcast
9:09 PM 71.6 °F - 69.8 °F 94% 29.79 in 10.0 mi North 9.2 mph - 0.00 in Rain Light Rain
9:28 PM 71.6 °F - 69.8 °F 94% 29.80 in 3.0 mi North 3.5 mph - 0.06 in Rain Rain
9:56 PM 71.1 °F - 70.0 °F 96% 29.79 in 10.0 mi NNE 8.1 mph - 0.09 in Rain Light Rain
10:56 PM 71.1 °F - 69.1 °F 93% 29.79 in 10.0 mi NE 6.9 mph - 0.02 in   Overcast
11:32 PM 69.8 °F - 68.0 °F 94% 29.79 in 10.0 mi NE 6.9 mph - N/A   Overcast
11:56 PM 70.0 °F - 68.0 °F 93% 29.80 in 10.0 mi NNE 9.2 mph - N/A   Overcast